Temp
79 79 79 79 78 79 79 79 79 79 78 78 78 78 78 79 80 80 80 80 80 80 79 79 79 79 79 78 78 78 77 77 77 76 75 75 74 73 73 72 70 71
79 79 80 79 79 78 78 80 79 79 78 78 79 79 79 79 79 80 80 79 80 80 80 80 79 79 79 78 77 77 77 77 77 78 76 75 75 74 75 73 73 71
79 79 79 79 79 79 80 80 80 80 79 79 79 79 79 80 80 80 80 80 80 80 79 80 79 79 79 79 78 78 77 76 77 77 76 76 76 75 75 75 74 72
79 80 80 80 80 80 80 79 79 79 80 78 79 80 81 81 80 80 79 81 79 80 80 79 80 80 79 79 78 77 77 77 78 77 76 75 75 76 76 75 75 74
79 79 80 80 80 80 80 79 80 80 80 80 80 80 80 80 80 80 80 80 79 79 79 79 79 79 79 79 79 78 77 77 77 77 76 75 75 75 76 75 75 75
80 80 80 80 80 80 80 80 80 80 81 80 80 80 80 80 80 80 80 80 80 80 80 80 79 80 79 79 79 79 78 77 77 76 76 76 75 76 77 75 75 74
79 79 80 80 80 80 80 80 80 80 81 82 81 80 80 80 80 80 80 81 80 80 80 80 79 79 79 79 78 78 78 78 77 76 76 76 75 75 76 76 75 75
80 80 80 80 80 80 80 80 80 80 81 81 81 81 81 81 80 81 81 81 81 80 80 80 80 79 80 79 78 78 78 79 78 77 76 76 76 75 75 77 76 75
80 80 80 80 80 80 80 81 81 81 81 81 81 82 82 82 82 81 80 80 80 80 79 80 80 80 80 79 79 78 78 78 79 78 77 76 76 76 76 76 76 75
79 80 80 80 80 80 80 81 82 81 81 81 82 83 82 82 82 82 81 80 80 80 80 80 80 80 80 80 79 79 79 78 78 78 78 78 77 77 77 76 76 75
80 80 80 80 80 81 81 82 82 83 82 81 82 82 82 82 81 82 81 81 80 80 80 80 80 80 80 80 80 80 80 79 79 78 78 78 78 78 78 77 76 76
80 80 80 80 80 81 81 82 83 82 82 82 82 82 82 83 82 82 81 81 81 81 81 80 80 80 80 80 80 80 80 80 79 79 79 79 79 79 78 78 77 77
80 80 80 81 81 81 82 82 83 83 83 83 83 83 83 82 82 82 82 81 81 81 81 81 81 80 80 80 80 80 80 79 79 79 79 79 79 79 79 79 79 78
81 81 81 81 81 81 81 82 82 83 83 83 83 83 83 83 83 82 82 82 82 81 82 82 81 80 80 80 80 80 80 79 79 79 79 79 79 79 79 79 79 79
81 81 81 81 81 81 80 81 82 82 82 82 82 83 83 84 84 83 82 82 82 82 82 82 81 81 81 81 80 80 80 80 79 79 79 78 78 79 79 79 80 80
81 81 81 81 81 80 80 81 81 82 82 82 82 83 83 83 83 83 83 82 81 81 82 81 81 82 78 72 74 81 80 80 80 79 79 79 78 78 79 79 80 80
81 81 81 80 80 80 80 80 81 81 81 81 81 82 82 82 83 83 83 83 82 82 81 81 82 82 73 69 69 71 79 80 80 79 79 79 78 78 78 78 79 80
81 81 80 80 80 80 80 80 81 81 80 81 81 81 81 82 82 82 82 83 83 83 82 82 82 75 69 67 67 67 71 81 81 80 80 79 79 79 79 79 79 79
82 81 81 80 80 80 81 80 80 80 80 80 81 82 82 81 81 82 82 83 83 82 82 83 82 74 68 66 66 66 66 73 82 81 80 80 79 79 79 79 79 78
82 81 81 81 81 81 81 80 80 80 81 82 82 81 81 81 82 82 82 81 82 82 82 83 82 75 67 65 64 64 65 68 80 81 81 81 80 80 80 79 79 79
82 81 81 81 81 81 80 80 80 80 81 82 82 82 81 81 81 81 82 82 82 83 82 83 84 73 66 63 62 62 63 65 78 81 81 81 81 81 80 80 80 80
82 81 81 81 81 81 80 80 80 80 80 81 82 83 83 83 82 83 82 82 82 83 83 82 85 71 65 63 62 62 62 70 76 79 80 81 81 81 81 81 81 81
83 82 81 81 81 81 80 80 80 80 81 82 81 82 82 82 82 83 83 83 83 82 82 83 84 75 64 62 61 61 62 73 76 78 79 80 80 81 81 81 81 81
83 83 82 81 81 81 81 81 82 82 82 82 82 82 82 83 83 83 83 83 83 83 84 83 84 77 63 60 59 60 64 75 76 77 78 78 79 80 81 81 81 77
84 83 83 82 81 82 82 82 82 82 83 83 83 83 83 84 83 83 83 83 84 84 79 81 84 79 63 60 58 58 64 75 77 77 77 77 78 78 80 80 81 79
84 83 83 83 82 82 83 82 83 83 83 82 82 83 83 83 83 83 82 83 83 83 83 82 83 84 71 58 58 57 59 74 77 77 76 77 78 78 78 79 80 80
MSLP
1012.63 1012.95 1013.31 1013.51 1013.59 1013.59 1013.79 1014.11 1014.27 1014.59 1014.83 1015.03 1015.35 1015.47 1015.59 1015.55 1015.63 1015.87 1015.99 1016.23 1016.43 1016.63 1016.79 1016.87 1016.99 1017.15 1017.27 1017.43 1017.55 1017.75 1017.91 1018.03 1018.15 1018.23 1018.39 1018.51 1018.75 1018.91 1019.07 1019.11 1019.15 1019.15
1012.39 1012.63 1012.83 1013.11 1013.39 1013.47 1013.59 1013.59 1013.87 1014.11 1014.43 1014.59 1014.71 1014.95 1015.11 1015.35 1015.51 1015.59 1015.87 1016.11 1016.23 1016.43 1016.51 1016.67 1016.83 1016.95 1017.11 1017.31 1017.47 1017.71 1017.87 1017.95 1018.15 1018.03 1018.39 1018.51 1018.55 1018.71 1018.87 1018.91 1019.03 1019.07
1012.11 1012.43 1012.67 1012.99 1013.11 1013.23 1013.27 1013.35 1013.51 1013.75 1014.03 1014.19 1014.39 1014.67 1014.91 1014.95 1015.27 1015.35 1015.55 1015.79 1016.07 1016.23 1016.39 1016.47 1016.63 1016.75 1016.87 1017.03 1017.23 1017.51 1017.71 1017.91 1018.07 1017.99 1018.19 1018.39 1018.39 1018.63 1018.63 1018.71 1018.91 1018.99
1011.75 1011.95 1012.19 1012.39 1012.59 1012.87 1013.03 1013.35 1013.51 1013.63 1013.79 1014.23 1014.27 1014.23 1014.39 1014.63 1014.87 1015.15 1015.35 1015.51 1015.83 1016.03 1016.15 1016.31 1016.43 1016.51 1016.67 1016.79 1017.03 1017.31 1017.43 1017.55 1017.59 1017.75 1018.11 1018.23 1018.31 1018.35 1018.47 1018.55 1018.67 1018.83
1011.35 1011.67 1011.83 1012.03 1012.19 1012.47 1012.83 1013.19 1013.39 1013.43 1013.59 1013.59 1013.75 1013.99 1014.23 1014.43 1014.71 1014.91 1015.15 1015.35 1015.51 1015.79 1015.91 1016.11 1016.19 1016.35 1016.43 1016.63 1016.79 1017.15 1017.23 1017.43 1017.47 1017.63 1017.95 1018.19 1018.15 1018.27 1018.27 1018.39 1018.59 1018.75
1010.99 1011.23 1011.47 1011.75 1011.95 1012.27 1012.63 1012.87 1012.95 1013.11 1013.23 1013.47 1013.55 1013.59 1013.79 1013.99 1014.31 1014.59 1014.79 1015.11 1015.23 1015.43 1015.67 1015.79 1016.03 1016.11 1016.23 1016.43 1016.63 1016.79 1016.95 1017.23 1017.27 1017.47 1017.79 1017.99 1018.07 1017.99 1018.07 1018.19 1018.39 1018.59
1010.67 1010.95 1011.31 1011.51 1011.87 1012.03 1012.31 1012.43 1012.55 1012.71 1012.83 1012.83 1013.07 1013.47 1013.51 1013.87 1014.03 1014.19 1014.39 1014.63 1014.91 1015.15 1015.35 1015.55 1015.71 1015.91 1015.99 1016.19 1016.47 1016.63 1016.67 1016.79 1016.95 1017.19 1017.51 1017.63 1017.75 1017.91 1017.83 1017.95 1018.11 1018.27
1010.15 1010.47 1010.87 1011.27 1011.67 1011.87 1012.07 1012.19 1012.31 1012.47 1012.51 1012.75 1013.07 1013.03 1013.15 1013.47 1013.67 1013.83 1014.03 1014.31 1014.59 1014.83 1014.99 1015.15 1015.31 1015.51 1015.67 1015.91 1016.27 1016.43 1016.51 1016.47 1016.71 1016.91 1017.15 1017.31 1017.43 1017.67 1017.67 1017.63 1017.79 1018.03
1009.87 1010.35 1010.67 1011.07 1011.39 1011.59 1011.83 1011.91 1012.03 1012.15 1012.23 1012.63 1012.75 1012.79 1012.83 1012.99 1013.23 1013.43 1013.71 1013.95 1014.27 1014.47 1014.67 1014.87 1014.95 1015.19 1015.31 1015.55 1015.79 1016.03 1016.19 1016.27 1016.23 1016.47 1016.75 1016.99 1017.19 1017.19 1017.23 1017.27 1017.59 1017.67
1009.83 1010.07 1010.47 1010.79 1011.11 1011.19 1011.47 1011.55 1011.67 1011.87 1011.99 1012.27 1012.35 1012.47 1012.75 1012.67 1012.75 1013.03 1013.35 1013.67 1013.95 1014.15 1014.35 1014.47 1014.63 1014.75 1014.95 1015.07 1015.27 1015.51 1015.75 1015.91 1015.99 1016.11 1016.23 1016.35 1016.51 1016.63 1016.79 1016.99 1017.07 1017.31
1009.43 1009.75 1010.11 1010.35 1010.59 1010.71 1010.95 1011.11 1011.35 1011.55 1011.75 1011.95 1012.11 1012.31 1012.35 1012.47 1012.67 1012.75 1013.07 1013.35 1013.59 1013.67 1013.87 1013.99 1014.07 1014.27 1014.59 1014.71 1014.79 1014.87 1015.11 1015.39 1015.59 1015.75 1015.83 1015.87 1015.91 1016.03 1016.19 1016.39 1016.59 1016.67
1008.83 1009.15 1009.47 1009.71 1009.99 1010.23 1010.47 1010.67 1010.91 1011.19 1011.39 1011.51 1011.71 1012.03 1012.07 1012.15 1012.39 1012.55 1012.67 1012.87 1012.91 1013.07 1013.23 1013.39 1013.55 1013.75 1013.99 1014.15 1014.31 1014.47 1014.71 1014.91 1015.07 1015.27 1015.35 1015.43 1015.51 1015.55 1015.67 1015.79 1015.99 1015.99
1008.23 1008.47 1008.71 1009.07 1009.35 1009.63 1009.91 1010.23 1010.51 1010.67 1010.91 1011.19 1011.23 1011.47 1011.71 1011.95 1011.99 1012.19 1012.19 1012.35 1012.47 1012.59 1012.79 1012.87 1013.11 1013.35 1013.59 1013.75 1013.91 1014.11 1014.31 1014.59 1014.79 1014.87 1014.99 1015.07 1015.03 1015.03 1015.11 1015.23 1015.31 1015.39
1007.59 1007.83 1008.15 1008.47 1008.75 1009.15 1009.51 1009.75 1009.99 1010.23 1010.39 1010.59 1010.79 1011.11 1011.23 1011.35 1011.55 1011.71 1011.71 1011.87 1012.07 1012.27 1012.27 1012.43 1012.75 1013.03 1013.15 1013.27 1013.43 1013.63 1013.87 1014.11 1014.27 1014.47 1014.63 1014.67 1014.63 1014.63 1014.67 1014.79 1014.79 1014.91
1007.03 1007.35 1007.67 1008.07 1008.39 1008.83 1009.19 1009.43 1009.55 1009.75 1009.95 1010.15 1010.35 1010.51 1010.55 1010.67 1010.83 1011.11 1011.51 1011.71 1011.75 1011.87 1011.99 1012.07 1012.39 1012.55 1012.59 1012.75 1012.99 1013.23 1013.31 1013.63 1013.79 1013.99 1014.15 1014.35 1014.39 1014.35 1014.31 1014.35 1014.43 1014.43
1006.63 1006.99 1007.35 1007.67 1008.11 1008.43 1008.71 1008.99 1009.27 1009.47 1009.67 1009.87 1009.95 1010.03 1010.15 1010.31 1010.55 1010.71 1010.95 1011.23 1011.51 1011.55 1011.63 1011.79 1011.91 1011.87 1011.83 1011.95 1012.15 1012.47 1012.79 1013.03 1013.27 1013.47 1013.63 1013.79 1014.03 1014.19 1014.15 1014.03 1013.99 1013.99
1006.35 1006.67 1006.99 1007.43 1007.63 1007.99 1008.31 1008.63 1008.87 1009.11 1009.35 1009.51 1009.63 1009.75 1009.95 1010.11 1010.31 1010.51 1010.63 1010.75 1010.95 1011.15 1011.31 1011.31 1011.27 1011.19 1011.23 1011.51 1011.75 1011.91 1012.15 1012.51 1012.83 1012.99 1013.11 1013.39 1013.59 1013.79 1013.91 1013.79 1013.71 1013.71
1005.83 1006.19 1006.63 1006.95 1007.31 1007.63 1007.87 1008.19 1008.55 1008.87 1009.03 1009.15 1009.35 1009.59 1009.67 1009.83 1010.11 1010.11 1010.23 1010.35 1010.47 1010.59 1010.75 1010.71 1010.67 1010.51 1010.75 1011.03 1011.31 1011.55 1011.75 1011.91 1012.19 1012.55 1012.79 1012.99 1013.11 1013.27 1013.31 1013.43 1013.51 1013.51
1005.27 1005.75 1006.11 1006.47 1006.75 1007.07 1007.43 1007.83 1008.19 1008.47 1008.71 1008.91 1009.07 1009.03 1009.39 1009.67 1009.63 1009.75 1009.87 1009.83 1009.99 1010.19 1010.27 1010.15 1010.11 1009.95 1010.31 1010.59 1010.91 1011.19 1011.43 1011.59 1011.71 1011.99 1012.35 1012.51 1012.63 1012.75 1012.87 1012.99 1013.07 1013.19
1004.75 1005.19 1005.63 1005.91 1006.19 1006.55 1006.91 1007.35 1007.67 1007.95 1007.99 1008.11 1008.43 1008.75 1009.03 1009.11 1009.15 1009.27 1009.27 1009.43 1009.47 1009.55 1009.67 1009.63 1009.59 1009.51 1009.91 1010.23 1010.55 1010.79 1011.03 1011.39 1011.35 1011.55 1011.79 1011.95 1012.11 1012.19 1012.31 1012.43 1012.43 1012.63
1004.31 1004.71 1005.15 1005.47 1005.75 1006.07 1006.43 1006.79 1007.07 1007.31 1007.59 1007.71 1007.95 1008.23 1008.47 1008.63 1008.67 1008.87 1008.83 1008.91 1008.95 1008.99 1009.23 1009.35 1009.07 1008.95 1009.43 1009.79 1010.11 1010.35 1010.59 1011.07 1011.11 1011.23 1011.39 1011.51 1011.51 1011.55 1011.63 1011.67 1011.75 1011.87
1003.79 1004.31 1004.71 1004.99 1005.31 1005.63 1006.03 1006.31 1006.55 1006.75 1007.07 1007.19 1007.47 1007.63 1007.71 1007.87 1008.11 1008.23 1008.43 1008.51 1008.43 1008.59 1008.91 1008.95 1008.51 1008.55 1008.95 1009.27 1009.55 1009.87 1010.27 1010.91 1010.95 1011.11 1011.15 1011.11 1011.11 1011.07 1011.03 1011.03 1011.15 1011.35
1003.23 1003.75 1004.19 1004.51 1004.83 1005.23 1005.55 1005.83 1006.11 1006.35 1006.55 1006.63 1007.11 1007.15 1007.35 1007.51 1007.55 1007.63 1007.63 1007.91 1008.15 1008.31 1008.51 1008.31 1008.23 1008.11 1008.43 1008.75 1009.07 1009.43 1010.31 1010.63 1010.71 1010.87 1010.87 1010.87 1010.75 1010.59 1010.63 1010.67 1010.71 1010.75
1002.63 1003.07 1003.63 1003.99 1004.31 1004.71 1004.99 1005.19 1005.31 1005.51 1005.83 1005.95 1006.43 1006.71 1006.87 1006.79 1006.95 1007.23 1007.27 1007.39 1007.67 1007.87 1007.75 1007.91 1007.79 1007.67 1008.07 1008.43 1008.79 1009.35 1009.75 1010.07 1010.35 1010.59 1010.63 1010.55 1010.47 1010.31 1010.27 1010.23 1010.15 1010.27
1001.99 1002.39 1002.87 1003.31 1003.71 1003.99 1004.23 1004.63 1004.87 1005.07 1005.15 1005.31 1005.55 1005.83 1005.99 1006.15 1006.51 1006.79 1006.95 1006.99 1006.99 1007.07 1007.11 1007.51 1007.51 1007.59 1007.83 1008.27 1008.71 1009.19 1009.63 1009.67 1009.87 1010.19 1010.43 1010.35 1010.35 1010.23 1009.95 1009.91 1009.91 1009.91
1001.39 1001.87 1002.23 1002.63 1003.07 1003.35 1003.59 1003.87 1004.07 1004.43 1004.71 1004.99 1005.19 1005.35 1005.67 1005.87 1006.03 1006.27 1006.55 1006.59 1006.47 1006.67 1006.87 1006.99 1007.27 1007.39 1007.59 1007.91 1008.31 1008.79 1009.11 1009.27 1009.39 1009.91 1010.07 1010.03 1010.03 1010.03 1010.07 1009.79 1009.67 1009.71
Wind_Speed
13 11 11 11 10 9 11 11 9 10 9 9 9 9 10 9 8 9 9 8 9 9 8 8 8 7 7 6 6 6 6 7 6 5 6 6 5 6 6 5 4 5
14 13 11 10 8 7 8 10 10 10 10 10 9 9 8 7 8 9 9 9 9 9 9 9 8 8 7 7 7 7 6 6 7 5 6 7 6 6 6 6 6 4
13 13 13 12 12 12 11 10 10 10 9 10 8 8 8 8 9 9 9 9 9 9 9 9 9 8 8 7 7 7 7 7 8 6 6 8 6 6 6 6 5 6
15 15 14 14 13 12 11 9 9 8 7 7 10 10 9 9 9 10 9 10 9 9 9 9 10 9 9 9 7 7 7 8 8 6 7 5 6 7 7 6 6 5
16 15 13 13 12 11 10 10 11 10 10 11 9 8 9 9 10 10 9 9 9 9 9 10 9 10 9 9 8 8 7 7 7 7 7 7 7 7 7 6 7 7
14 13 13 13 12 12 11 12 12 12 12 10 11 9 10 11 10 11 11 10 10 10 10 10 10 10 10 10 9 9 8 7 7 8 8 8 7 7 6 7 7 8
15 14 15 12 12 12 12 12 11 11 11 12 9 10 9 10 11 12 11 11 11 10 11 10 10 10 9 9 9 10 9 9 8 9 9 8 7 8 8 8 9 9
16 14 14 12 13 12 12 12 11 11 11 10 11 11 10 11 11 11 11 11 11 11 11 11 11 10 10 9 10 10 10 8 9 10 10 10 8 9 9 8 8 10
14 13 13 14 14 13 13 13 11 11 10 11 12 11 10 11 11 11 11 11 11 11 11 11 11 11 10 10 11 12 12 11 10 11 11 11 11 11 11 9 9 10
13 12 14 14 14 13 14 14 12 11 10 11 12 11 11 11 11 12 11 11 12 11 12 12 12 12 11 12 13 12 12 12 11 11 11 12 12 12 11 10 12 11
15 14 15 16 16 14 16 15 14 12 10 11 11 11 12 11 11 10 11 12 12 13 13 13 13 13 13 13 12 12 13 12 12 11 12 12 12 12 11 12 12 13
17 16 17 17 17 16 16 15 14 13 12 12 12 12 12 12 12 11 12 13 14 13 13 13 13 13 14 14 14 13 12 12 12 12 12 12 12 12 12 12 12 14
17 17 17 16 16 16 15 14 14 14 14 14 13 13 13 12 13 13 12 13 14 13 13 14 13 12 13 13 13 13 13 13 12 12 12 12 12 13 13 12 13 13
16 16 16 16 15 14 14 15 14 15 15 14 13 15 15 14 14 14 14 12 13 12 13 12 12 12 12 13 13 13 13 13 13 13 13 13 13 13 13 13 13 13
15 14 14 14 15 14 15 15 15 14 14 14 14 15 13 15 14 14 14 13 13 13 13 12 12 12 11 12 13 13 13 13 13 14 13 13 13 13 13 13 13 13
14 13 13 14 14 15 15 15 14 14 14 14 15 15 15 14 14 14 14 14 14 14 13 12 12 11 14 20 17 13 13 12 12 13 13 13 13 13 13 13 14 13
13 14 13 14 15 14 14 15 15 14 13 14 14 14 15 14 13 15 14 14 15 15 15 13 12 12 19 19 20 21 15 13 13 13 12 12 12 13 13 13 12 12
14 14 14 15 14 15 15 14 14 14 14 14 14 14 13 12 14 15 14 14 13 14 15 14 14 17 20 19 20 21 19 14 12 11 11 11 12 13 12 11 12 12
14 15 15 15 15 15 14 13 14 15 15 14 15 13 12 14 15 15 15 14 14 15 15 15 14 18 19 20 19 20 21 18 12 11 11 12 12 12 12 12 11 11
15 15 15 15 15 14 14 14 15 16 16 14 13 12 14 14 15 16 15 15 15 15 15 15 15 17 19 19 19 20 21 19 14 13 12 12 12 12 12 12 13 12
15 15 15 14 15 15 14 15 15 15 15 14 13 14 14 15 15 16 15 15 16 15 13 14 14 19 18 20 20 21 21 18 14 13 11 11 12 12 13 13 13 12
15 15 15 14 14 14 15 15 15 15 15 13 13 12 12 12 12 13 15 15 16 15 14 15 15 19 19 20 22 21 21 13 12 13 13 13 12 12 13 12 12 12
15 15 15 15 15 15 15 15 15 14 13 12 13 13 13 14 14 14 14 14 15 14 16 16 14 17 19 20 21 22 15 11 12 12 12 13 13 12 11 11 11 12
15 15 15 15 14 15 15 14 14 13 14 13 14 14 14 14 13 12 12 13 14 15 16 16 15 15 18 19 20 19 17 13 11 11 13 13 13 12 11 11 13 17
15 15 15 15 15 15 14 15 14 13 13 13 13 13 14 12 11 12 12 11 13 14 17 17 14 12 14 16 17 17 16 11 11 11 12 12 11 12 11 11 11 12
13 15 15 15 15 14 13 13 12 12 12 13 12 12 11 11 11 11 13 12 12 12 12 13 13 10 9 16 17 18 20 14 11 11 12 12 11 11 11 11 11 10
Wind_Direction
192 193 197 198 198 195 191 189 188 188 189 187 191 195 194 198 188 190 193 190 192 193 194 195 196 201 202 195 195 198 199 201 197 186 192 183 186 181 193 203 203 193
193 194 197 200 201 197 197 193 189 190 190 191 195 191 193 185 193 191 191 193 192 195 193 195 197 199 201 198 194 193 201 198 201 185 189 195 199 187 199 200 202 199
193 195 196 198 201 200 197 195 192 192 190 193 188 188 188 189 191 193 192 191 194 195 193 195 198 200 201 202 195 194 196 200 203 191 186 198 197 196 206 199 203 194
195 196 197 201 202 202 198 193 197 194 188 181 192 192 189 190 190 192 193 192 193 195 194 193 198 200 202 204 196 198 199 202 203 187 192 194 200 201 206 198 204 207
196 198 200 201 202 200 196 199 199 197 194 196 191 186 188 188 189 193 192 194 194 196 194 196 196 199 201 204 201 203 201 203 200 192 196 198 200 198 207 197 205 212
198 200 201 201 199 195 196 200 201 199 200 195 195 188 192 189 189 193 194 194 196 197 197 198 197 200 198 202 203 208 203 202 199 194 201 204 200 201 202 201 205 212
197 198 201 201 201 200 201 203 202 202 201 202 190 193 186 189 192 194 194 196 195 198 199 200 201 200 198 197 201 209 208 204 197 195 202 207 199 202 206 202 208 213
196 197 198 197 201 202 204 204 204 203 203 199 198 200 189 191 194 194 195 195 197 200 202 203 204 204 199 196 202 206 210 207 204 198 203 207 200 208 205 207 206 215
193 195 194 197 201 204 207 206 205 204 200 200 203 202 199 198 196 194 194 195 200 201 202 205 205 205 203 201 204 206 207 209 208 203 203 206 206 211 208 204 207 214
194 195 195 199 203 205 208 208 206 205 199 203 204 202 202 206 203 201 196 196 201 202 203 205 205 205 205 206 206 206 208 209 209 209 209 209 211 212 210 205 210 213
195 194 197 200 204 205 208 207 207 206 202 205 203 204 204 204 206 202 203 203 205 205 205 206 206 203 205 208 209 209 209 209 209 211 214 215 215 214 210 209 212 215
195 195 199 200 202 205 207 206 206 205 204 206 204 205 205 205 203 202 204 207 209 209 207 208 206 204 206 207 208 209 210 211 210 212 215 216 218 218 215 213 215 218
196 198 199 200 201 204 204 205 206 206 205 206 204 207 205 205 206 205 207 207 210 209 210 209 207 206 206 208 209 208 209 210 212 213 216 217 220 219 219 217 218 221
199 199 200 201 202 202 204 205 205 206 206 206 204 208 209 207 206 207 209 209 210 210 214 211 209 208 209 209 210 209 208 211 211 213 216 219 221 221 220 220 220 222
198 199 200 200 201 202 204 206 206 207 205 205 205 209 210 211 210 208 208 211 213 212 214 212 210 211 211 210 210 211 209 212 211 213 215 218 221 223 222 223 223 224
197 198 199 200 200 202 204 205 207 207 207 207 208 209 210 210 211 211 210 210 211 214 215 214 214 214 214 211 208 208 209 213 213 215 215 217 219 223 226 225 225 225
195 199 198 201 203 203 203 205 206 207 208 210 210 209 210 210 211 213 212 211 211 213 214 216 216 217 214 210 210 209 208 211 213 216 215 217 219 221 225 226 229 228
197 197 199 202 200 204 204 204 205 207 210 211 210 210 209 209 213 215 214 213 214 215 216 217 219 218 213 210 208 209 209 212 214 216 216 218 220 223 227 228 229 230
196 197 200 201 201 202 202 201 203 208 210 211 212 210 206 209 214 213 215 214 214 215 218 219 223 219 213 210 208 208 210 212 217 214 216 220 221 223 227 228 229 230
197 199 200 202 200 200 200 201 202 207 208 209 210 206 209 212 213 214 215 214 215 216 218 220 223 221 211 209 208 208 209 208 221 218 218 222 223 223 225 228 228 228
196 198 200 200 199 199 200 202 202 206 207 208 207 207 209 211 212 214 216 216 218 218 219 220 225 221 208 206 208 208 209 204 219 222 225 225 226 225 226 227 229 230
194 196 199 199 199 199 200 202 203 203 205 204 207 210 213 214 217 217 217 217 218 219 220 224 225 220 208 205 208 209 205 205 216 222 226 229 229 228 227 229 231 232
194 195 197 198 197 199 201 202 202 203 205 201 206 210 210 211 214 214 217 217 218 217 221 227 226 220 208 206 207 207 196 211 216 222 228 232 234 232 232 231 231 231
193 194 196 197 197 200 200 202 202 202 202 198 205 208 212 213 212 216 217 218 217 218 219 225 227 221 208 208 206 200 194 207 214 218 227 231 236 237 236 236 233 232
192 194 196 196 198 200 199 200 200 200 201 201 207 209 214 210 210 214 216 218 219 221 222 224 232 224 204 205 202 197 197 213 213 219 228 231 232 238 238 241 241 235
192 194 195 196 198 198 199 200 198 200 201 202 207 208 211 211 212 213 214 217 218 221 222 222 228 227 195 197 195 196 196 204 213 219 228 228 229 236 240 240 241 241